Weather History for Tonopah, NV

Change the Weather History Date:

Wednesday, October 24, 2012

  Actual Average Record
Temperature  
Mean Temperature 43 °F 50 °F  
Max Temperature 55 °F 65 °F 85 °F (1959)
Min Temperature 31 °F 35 °F 18 °F (1975)
Degree Days  
Heating Degree Days 22 15  
Month to date heating degree days 184 262  
Since 1 July heating degree days 188 353  
Cooling Degree Days 0 0  
Month to date cooling degree days 7 0  
Year to date cooling degree days 1004 781  
Moisture  
Dew Point 17 °F    
Average Humidity 42    
Maximum Humidity 69    
Minimum Humidity 15    
Precipitation  
Precipitation 0.00 in 0.01 in 0.20 in (1971)
Month to date precipitation 0.94 0.25  
Year to date precipitation 5.76 4.40  
Sea Level Pressure  
Sea Level Pressure 29.98 in    
Wind  
Wind Speed 9 mph (NW)    
Max Wind Speed 21 mph    
Max Gust Speed 29 mph    
Visibility 10 miles    
Events      
T = Trace of Precipitation, MM = Missing Value Source: NWS Daily Summary

Daily Weather History Graph

Daily Weather History Graph

Search for Another Location

Airport:

Trip Planner

Search our weather history database for the weather conditions in past years. The results will help you decide how hot, cold, wet, or windy it might be!

Date:

Astronomy

Oct. 24, 2012 Rise Set
Actual Time 7:06 AM PDT 5:57 PM PDT
Civil Twilight 6:39 AM PDT 6:24 PM PDT
Nautical Twilight 6:08 AM PDT 6:55 PM PDT
Astronomical Twilight 5:38 AM PDT 7:26 PM PDT
Moon 3:12 PM PDT (10/24) 2:10 AM PDT (10/24)
Length of Visible Light 11h 45m
Length of Day
10h 51m
Waxing Gibbous, 77% of the Moon is Illuminated
Oct 24
Waxing Gibbous
Oct 29
Full
Nov 6
Last Quarter
Nov 13
New
Nov 20
First Quarter

Hourly Weather History & Observations

Time (PDT) Temp. Windchill Dew Point Humidity Pressure Visibility Wind Dir Wind Speed Gust Speed Precip Events Conditions
12:56 AM 42.1 °F 35.7 °F 24.1 °F 49% 29.84 in 10.0 mi North 11.5 mph - N/A   Scattered Clouds
1:56 AM 39.9 °F 34.5 °F 24.1 °F 53% 29.87 in 10.0 mi NNW 8.1 mph - N/A   Clear
2:56 AM 37.9 °F 31.5 °F 23.0 °F 55% 29.87 in 10.0 mi NW 9.2 mph - N/A   Scattered Clouds
3:56 AM 37.9 °F 31.5 °F 21.9 °F 53% 29.87 in 10.0 mi WNW 9.2 mph - N/A   Mostly Cloudy
4:56 AM 36.0 °F 29.0 °F 21.0 °F 55% 29.89 in 10.0 mi WNW 9.2 mph - N/A   Partly Cloudy
5:56 AM 33.1 °F - 21.0 °F 61% 29.93 in 10.0 mi Calm Calm - N/A   Clear
6:56 AM 30.9 °F 27.5 °F 21.9 °F 69% 29.96 in 10.0 mi NNE 3.5 mph - N/A   Clear
7:56 AM 34.0 °F 28.8 °F 23.0 °F 64% 29.98 in 10.0 mi North 5.8 mph - N/A   Clear
8:56 AM 42.1 °F 39.2 °F 23.0 °F 47% 29.98 in 10.0 mi North 4.6 mph - N/A   Clear
9:56 AM 46.0 °F 40.6 °F 18.0 °F 33% 29.98 in 10.0 mi WNW 11.5 mph 16.1 mph N/A   Clear
10:56 AM 48.0 °F - 16.0 °F 28% 29.96 in 10.0 mi NW 17.3 mph 23.0 mph N/A   Clear
11:56 AM 48.9 °F - 15.1 °F 26% 29.98 in 10.0 mi WNW 17.3 mph 25.3 mph N/A   Clear
12:56 PM 50.0 °F - 15.1 °F 25% 29.96 in 10.0 mi West 5.8 mph 18.4 mph N/A   Partly Cloudy
1:56 PM 53.1 °F - 12.9 °F 20% 29.94 in 10.0 mi West 12.7 mph 20.7 mph N/A   Mostly Cloudy
2:56 PM 52.0 °F - 12.9 °F 21% 29.95 in 10.0 mi West 8.1 mph - N/A   Partly Cloudy
3:56 PM 53.1 °F - 10.0 °F 18% 29.96 in 10.0 mi West 11.5 mph 19.6 mph N/A   Clear
4:56 PM 53.1 °F - 7.0 °F 16% 29.97 in 10.0 mi WNW 11.5 mph - N/A   Clear
5:56 PM 48.9 °F - 10.0 °F 21% 30.00 in 10.0 mi North 12.7 mph - N/A   Clear
6:56 PM 46.0 °F 41.0 °F 12.0 °F 25% 30.05 in 10.0 mi North 10.4 mph - N/A   Clear
7:56 PM 44.1 °F 37.4 °F 9.0 °F 24% 30.08 in 10.0 mi North 13.8 mph 19.6 mph N/A   Clear
8:56 PM 42.1 °F 36.1 °F 12.9 °F 31% 30.08 in 10.0 mi North 10.4 mph - N/A   Clear
9:56 PM 41.0 °F 39.0 °F 14.0 °F 33% 30.09 in 10.0 mi North 3.5 mph - N/A   Clear
10:56 PM 39.0 °F 34.0 °F 17.1 °F 41% 30.10 in 10.0 mi NW 6.9 mph - N/A   Clear
11:56 PM 36.0 °F 29.0 °F 18.0 °F 48% 30.12 in 10.0 mi NW 9.2 mph - N/A   Clear